Regional Weather Roundup
Issued by NWS

Home | Current Version | Previous Version | Text Only | Print | Product List | Glossary On
Versions: 1 2 3 4 5 6 7 8 9 10 11 12 13 14 15 16 17 18 19 20 21 22 23 24 25 26 27 28 29 30 31 32 33 34 35 36 37 38 39 40 41 42 43 44 45 46 47 48 49 50
000
ASUS43 KTOP 200608
RWRKS

WEATHER ROUNDUP FOR KANSAS
NATIONAL WEATHER SERVICE GOODLAND KS
1200 AM CST SAT JAN 20 2018

NOTE:  "FAIR" INDICATES FEW OR NO CLOUDS BELOW 12,000 FEET WITH NO
SIGNIFICANT WEATHER AND/OR OBSTRUCTIONS TO VISIBILITY.

KSZ001>006-013>018-027>032-041>047-200700-
NORTHWEST KANSAS

CITY           SKY/WX    TMP DP  RH WIND       PRES   REMARKS
GOODLAND       MOCLDY    35  20  54 W6        29.72R
6HR MIN TEMP:  30; 6HR MAX TEMP:  51;

HAYS           CLOUDY    34  16  47 S7        29.71F
HILL CITY      CLOUDY    30  18  60 NW6       29.71R
6HR MIN TEMP:  29; 6HR MAX TEMP:  54;

RUSSELL        CLOUDY    41  22  46 S13       29.70F
6HR MIN TEMP:  41; 6HR MAX TEMP:  52;

$$

KSZ061>065-074>080-084>089-200700-
SOUTHWEST KANSAS

CITY           SKY/WX    TMP DP  RH WIND       PRES   REMARKS
DODGE CITY     CLOUDY    43  16  33 S13       29.72S
6HR MIN TEMP:  43; 6HR MAX TEMP:  55;

ELKHART        PTCLDY    54  20  27 W10       29.73S
GARDEN CITY    CLOUDY   N/A N/A N/A S6        29.70F
GREAT BEND     CLOUDY    35  20  54 S7        29.74S
LIBERAL        CLOUDY    35  15  44 SW13      29.72F WCI  26
PRATT          CLOUDY    41  21  44 S10       29.76S
6HR MIN TEMP:  41; 6HR MAX TEMP:  55;

$$

KSZ066>073-081>083-090>101-200700-
SOUTHEAST KANSAS

CITY           SKY/WX    TMP DP  RH WIND       PRES   REMARKS
CHANUTE        CLOUDY    44  37  76 S18       29.89F
6HR MIN TEMP:  42; 6HR MAX TEMP:  46;

COFFEYVILLE    CLOUDY    45  39  79 S16G24    29.92S
6HR MIN TEMP:  44; 6HR MAX TEMP:  49;

HUTCHINSON     CLOUDY    40  28  62 SE12      29.78S WCI  33
6HR MIN TEMP:  40; 6HR MAX TEMP:  50;

MEDICINE LODGE   N/A     41  26  55 SE12      29.77F
NEWTON         CLOUDY    43  33  68 S20G28    29.80F
PARSONS        CLOUDY    44  39  82 S12G22    29.92S
6HR MIN TEMP:  44; 6HR MAX TEMP:  47;

WICHITA INTL   CLOUDY    43  34  70 S17       29.81S
6HR MIN TEMP:  41; 6HR MAX TEMP:  51;

WICHITA JABRA  CLOUDY    44  35  70 S17G24    29.81S
6HR MIN TEMP:  43; 6HR MAX TEMP:  52;

WICHITA MCCONL CLOUDY    43  34  69 S18G25    29.81F
WINFIELD       CLOUDY    45  39  79 S17G26    29.85F
6HR MIN TEMP:  45; 6HR MAX TEMP:  51;

$$

KSZ007>012-019>026-033>040-048>060-102>105-200700-
NORTHEAST KANSAS

CITY           SKY/WX    TMP DP  RH WIND       PRES   REMARKS
CONCORDIA      CLOUDY    41  25  53 S12       29.74F
6HR MIN TEMP:  41; 6HR MAX TEMP:  46;

EMPORIA        CLOUDY    41  32  70 S14       29.82S
6HR MIN TEMP:  40; 6HR MAX TEMP:  46;

LAWRENCE       PTCLDY    40  31  70 SE6       29.85S
6HR MIN TEMP:  40; 6HR MAX TEMP:  44;

MANHATTAN      PTCLDY    39  26  59 S3        29.79R
6HR MIN TEMP:  37; 6HR MAX TEMP:  47;

MARYSVILLE     CLOUDY    36  27  69 S7        29.77F
OLATHE IND     CLOUDY    42  34  73 S12       29.86S
6HR MIN TEMP:  40; 6HR MAX TEMP:  44;

OLATHE EXE     CLOUDY    42  34  73 S16       29.85F
6HR MIN TEMP:  40; 6HR MAX TEMP:  43;

SALINA         CLOUDY    45  29  53 S15       29.76S
6HR MIN TEMP:  42; 6HR MAX TEMP:  46;

TOPEKA BILLARD CLOUDY    43  31  62 S6        29.83S
6HR MIN TEMP:  42; 6HR MAX TEMP:  46;

TOPEKA FORBES  CLOUDY    42  31  64 S13       29.82R
6HR MIN TEMP:  42; 6HR MAX TEMP:  46;

$$




USA.gov is the U.S. government's official web portal to all federal, state and local government web resources and services.